sat.trackr.live / text

‹ back to catalog

STARLINK-2609

NORAD 48373 · 2021-038W

PAYLOAD ACTIVE UNKNOWN

§ Identity

Operator
Country
US
Launch date
2021-05-04
Launch site
AFETR
Launch vehicle
Mass (kg)
RCS (m²)

Purposes: comms

External: N2YO · Heavens-Above · Gunter

§ Orbital elements

Epoch: 2026-05-24T20:12:22.801248Z

Period
94.01 min
Inclination
53.1605°
Eccentricity
0.0001183
Mean motion
15.31709497 rev/d
Perigee alt
469.9 km
Apogee alt
471.5 km
Semi-major
6,848.8 km
B*
1.2226e-4
RAAN
351.3021°
Arg perigee
76.5774°
Mean anomaly
283.5359°
Rev number
27,892

§ Raw data

STARLINK-26091 48373U 21038W   26144.84193057  .00003432  00000+0  12226-3 0  99902 48373  53.1605 351.3021 0001183  76.5774 283.5359 15.31709497278920

JSON: /api/v1/satellites/48373 · /tle

For live sub-satellite position, see the globe view (requires WebGL).

§ Visibility from observer

Set your observer location to see the next 7 days of passes ≥ 10°. The values pass through the URL so the page stays shareable.

No JS? Fill the form by hand. The geolocation button needs JavaScript.